Starlink 35947

operational
NORAD ID: 66883 Int'l Des: 2025-283 Owner: SPXS Country: US Constellation: starlink
LEOCIRCULAR

关于 Starlink 35947

正在加载描述...

实时位置

正在加载3D地球...

即将过境

高度历史

Altitude vs Time

uPlot chart will show altitude changes over time

两行轨道根数

1 66883U 25283F 25347.58336806 -.01264778 47113-3 -36297-2 0 9996
2 66883 53.1556 69.6766 0000706 60.6567 303.5749 15.92514490 2611
Epoch: Dec 13, 2025 • Age: 19 hours

当前状态

高度 302.2 km
速度 7.73 km/s
星下点 -2.73°S, 31.9°E
发射日期 Dec 4, 2025
运行时间 9 days
类型 internet

技术详情

分类 Payload
质量 575.00 kg
干质量 530.00 kg
总质量 575.00 kg
长度 0.30 m
直径 4.10 m
跨度 29.00 m
形状 Box + pan
制造商 SPXS
平台类型 Starlink V2MO
阶段状态 In Orbit
所有者/国家 SPXS/US

大型星座

Loading constellations...